When you browse on this site, cookies collect data to enhance your experience and personalize the content and advertising you see.
Visit our Privacy Policy to learn more. By continuing to use the site, you agree to this use of cookies and data.
  • în România
  • Lista ţărilor
  • Pe 7 zile
  • Temperatura apei
  • Meteo pe hartă
  • Widget-uri
  • user-avatar
    Intrare

    Meteo pe oră la Dżambi

    Astăzi, 2 Aprilie, Joi

    Timp Temperatura Precipitaţii Vânt Presiune Umiditate
    00:00 +24°C° 0.2 mm 0 m/s 755 mmHg 90%
    01:00 +24°C° 0 mm 0 m/s 755 mmHg 92%
    02:00 +23°C° 1.1 mm 0 m/s 755 mmHg 93%
    03:00 +23°C° 1.1 mm 0 m/s 755 mmHg 94%
    04:00 +23°C° 1.1 mm 0 m/s 754 mmHg 96%
    05:00 +23°C° 0.5 mm 0 m/s 755 mmHg 95%
    06:00 +24°C° 0.5 mm 0 m/s 755 mmHg 94%
    07:00 +24°C° 0.5 mm 0 m/s 756 mmHg 94%
    08:00 +27°C° 0 mm 0 m/s 756 mmHg 83%
    09:00 +29°C° 0 mm 0 m/s 756 mmHg 73%
    10:00 +32°C° 0 mm 0 m/s 756 mmHg 63%
    11:00 +33°C° 0.4 mm 0 m/s 755 mmHg 61%
    12:00 +33°C° 0.4 mm 0 m/s 754 mmHg 60%
    13:00 +36°C° 0.4 mm 1 m/s 754 mmHg 58%
    14:00 +34°C° 2.1 mm 1 m/s 753 mmHg 67%
    15:00 +33°C° 2.1 mm 1 m/s 752 mmHg 76%
    16:00 +32°C° 2.1 mm 1 m/s 752 mmHg 84%
    17:00 +30°C° 0.4 mm 1 m/s 753 mmHg 87%
    18:00 +29°C° 0.4 mm 1 m/s 753 mmHg 90%
    19:00 +28°C° 0.4 mm 1 m/s 754 mmHg 93%
    20:00 +27°C° 0 mm 1 m/s 754 mmHg 93%
    21:00 +27°C° 0 mm 1 m/s 755 mmHg 94%
    22:00 +27°C° 0 mm 1 m/s 755 mmHg 94%
    23:00 +26°C° 0 mm 1 m/s 755 mmHg 95%

    Mâine, 3 Aprilie, Vineri

    Timp Temperatura Precipitaţii Vânt Presiune Umiditate
    00:00 +26°C° 0 mm 1 m/s 755 mmHg 95%
    01:00 +24°C° 0 mm 0 m/s 755 mmHg 96%
    02:00 +24°C° 1.1 mm 0 m/s 754 mmHg 96%
    03:00 +24°C° 1.1 mm 0 m/s 754 mmHg 97%
    04:00 +24°C° 1.1 mm 0 m/s 754 mmHg 98%
    05:00 +24°C° 2.3 mm 0 m/s 755 mmHg 98%
    06:00 +26°C° 2.3 mm 1 m/s 755 mmHg 98%
    07:00 +26°C° 2.3 mm 1 m/s 756 mmHg 98%
    08:00 +27°C° 1.3 mm 1 m/s 756 mmHg 93%
    09:00 +29°C° 1.3 mm 1 m/s 756 mmHg 89%
    10:00 +30°C° 1.3 mm 2 m/s 757 mmHg 85%
    11:00 +31°C° 0.4 mm 2 m/s 756 mmHg 79%
    12:00 +32°C° 0.4 mm 2 m/s 755 mmHg 74%
    13:00 +34°C° 0.4 mm 2 m/s 754 mmHg 68%
    14:00 +34°C° 0.8 mm 2 m/s 754 mmHg 70%
    15:00 +33°C° 0.8 mm 1 m/s 753 mmHg 72%
    16:00 +33°C° 0.8 mm 1 m/s 753 mmHg 74%
    17:00 +31°C° 1.1 mm 1 m/s 753 mmHg 80%
    18:00 +29°C° 1.1 mm 1 m/s 754 mmHg 85%
    19:00 +28°C° 1.1 mm 1 m/s 755 mmHg 91%
    20:00 +27°C° 0.1 mm 1 m/s 755 mmHg 92%
    21:00 +27°C° 0.1 mm 1 m/s 755 mmHg 92%
    22:00 +25°C° 0.1 mm 0 m/s 756 mmHg 93%
    23:00 +25°C° 0.2 mm 0 m/s 756 mmHg 93%

    Poimâine, 4 Aprilie, Sâmbătă

    Timp Temperatura Precipitaţii Vânt Presiune Umiditate
    00:00 +25°C° 0.2 mm 0 m/s 756 mmHg 93%
    01:00 +25°C° 0.2 mm 0 m/s 756 mmHg 94%
    02:00 +24°C° 1.5 mm 0 m/s 755 mmHg 95%
    03:00 +26°C° 1.5 mm 1 m/s 755 mmHg 97%
    04:00 +26°C° 1.5 mm 1 m/s 754 mmHg 98%
    05:00 +26°C° 1 mm 1 m/s 755 mmHg 98%
    06:00 +26°C° 1 mm 1 m/s 756 mmHg 98%
    07:00 +26°C° 1 mm 1 m/s 757 mmHg 98%
    08:00 +27°C° 0 mm 1 m/s 757 mmHg 94%
    09:00 +28°C° 0 mm 1 m/s 757 mmHg 90%
    10:00 +28°C° 0 mm 1 m/s 757 mmHg 86%
    11:00 +30°C° 0 mm 1 m/s 756 mmHg 81%
    12:00 +31°C° 0 mm 1 m/s 756 mmHg 75%
    13:00 +32°C° 0 mm 1 m/s 755 mmHg 69%
    14:00 +32°C° 0.8 mm 1 m/s 754 mmHg 71%
    15:00 +30°C° 0.8 mm 0 m/s 754 mmHg 74%
    16:00 +30°C° 0.8 mm 0 m/s 753 mmHg 76%
    17:00 +30°C° 3 mm 1 m/s 754 mmHg 83%
    18:00 +28°C° 3 mm 1 m/s 755 mmHg 89%
    19:00 +27°C° 3 mm 1 m/s 755 mmHg 96%
    20:00 +27°C° 1 mm 1 m/s 756 mmHg 96%
    21:00 +26°C° 1 mm 1 m/s 756 mmHg 97%
    22:00 +26°C° 1 mm 1 m/s 757 mmHg 97%
    23:00 +26°C° 0.1 mm 1 m/s 757 mmHg 97%

    5 Aprilie, Duminică

    Timp Temperatura Precipitaţii Vânt Presiune Umiditate
    00:00 +26°C° 0.1 mm 1 m/s 756 mmHg 96%
    01:00 +24°C° 0.1 mm 0 m/s 756 mmHg 96%
    02:00 +24°C° 0 mm 0 m/s 756 mmHg 96%
    03:00 +26°C° 0 mm 1 m/s 755 mmHg 97%
    04:00 +26°C° 0 mm 1 m/s 755 mmHg 97%
    05:00 +24°C° 0 mm 0 m/s 755 mmHg 97%
    06:00 +24°C° 0 mm 0 m/s 755 mmHg 97%
    07:00 +24°C° 0 mm 0 m/s 756 mmHg 97%
    08:00 +25°C° 0 mm 0 m/s 756 mmHg 94%
    09:00 +28°C° 0 mm 1 m/s 756 mmHg 92%
    10:00 +28°C° 0 mm 1 m/s 757 mmHg 89%
    11:00 +30°C° 0 mm 1 m/s 756 mmHg 82%
    12:00 +31°C° 0 mm 1 m/s 755 mmHg 74%
    13:00 +32°C° 0 mm 1 m/s 755 mmHg 66%
    14:00 +33°C° 0.1 mm 1 m/s 754 mmHg 65%
    15:00 +33°C° 0.1 mm 1 m/s 754 mmHg 64%
    16:00 +33°C° 0.1 mm 1 m/s 753 mmHg 63%
    17:00 +31°C° 0.2 mm 1 m/s 754 mmHg 72%
    18:00 +30°C° 0.2 mm 1 m/s 755 mmHg 80%
    19:00 +28°C° 0.2 mm 1 m/s 755 mmHg 88%
    20:00 +28°C° 0.4 mm 1 m/s 756 mmHg 90%
    21:00 +27°C° 0.4 mm 1 m/s 756 mmHg 92%
    22:00 +27°C° 0.4 mm 1 m/s 757 mmHg 93%
    23:00 +24°C° 1.2 mm 0 m/s 756 mmHg 94%

    6 Aprilie, Luni

    Timp Temperatura Precipitaţii Vânt Presiune Umiditate
    00:00 +24°C° 1.2 mm 0 m/s 756 mmHg 95%
    01:00 +24°C° 1.2 mm 0 m/s 756 mmHg 96%
    02:00 +24°C° 0.9 mm 0 m/s 756 mmHg 96%
    03:00 +26°C° 0.9 mm 1 m/s 755 mmHg 96%
    04:00 +26°C° 0.9 mm 1 m/s 755 mmHg 96%
    05:00 +26°C° 0.4 mm 1 m/s 755 mmHg 96%
    06:00 +24°C° 0.4 mm 0 m/s 756 mmHg 96%
    07:00 +24°C° 0.4 mm 0 m/s 756 mmHg 95%
    08:00 +25°C° 0 mm 0 m/s 756 mmHg 90%
    09:00 +27°C° 0 mm 0 m/s 756 mmHg 84%
    10:00 +28°C° 0 mm 0 m/s 756 mmHg 79%
    11:00 +30°C° 0.1 mm 0 m/s 756 mmHg 72%
    12:00 +32°C° 0.1 mm 0 m/s 755 mmHg 64%
    13:00 +33°C° 0.1 mm 0 m/s 754 mmHg 57%
    14:00 +34°C° 1.6 mm 1 m/s 754 mmHg 66%
    15:00 +32°C° 1.6 mm 1 m/s 753 mmHg 75%
    16:00 +31°C° 1.6 mm 1 m/s 752 mmHg 84%
    17:00 +30°C° 0.4 mm 1 m/s 753 mmHg 87%
    18:00 +29°C° 0.4 mm 1 m/s 753 mmHg 90%
    19:00 +27°C° 0.4 mm 1 m/s 754 mmHg 94%
    20:00 +27°C° 0 mm 1 m/s 755 mmHg 94%
    21:00 +25°C° 0 mm 0 m/s 755 mmHg 94%
    22:00 +25°C° 0 mm 0 m/s 756 mmHg 94%
    23:00 +25°C° 0 mm 0 m/s 755 mmHg 94%

    7 Aprilie, Marţi

    Timp Temperatura Precipitaţii Vânt Presiune Umiditate
    00:00 +25°C° 0 mm 0 m/s 755 mmHg 94%
    01:00 +25°C° 0 mm 0 m/s 755 mmHg 94%
    02:00 +25°C° 0.1 mm 0 m/s 755 mmHg 94%
    03:00 +25°C° 0.1 mm 0 m/s 755 mmHg 94%
    04:00 +24°C° 0.1 mm 0 m/s 754 mmHg 95%
    05:00 +25°C° 0.3 mm 0 m/s 755 mmHg 94%
    06:00 +25°C° 0.3 mm 0 m/s 755 mmHg 94%
    07:00 +25°C° 0.3 mm 0 m/s 756 mmHg 94%
    08:00 +26°C° 1.6 mm 0 m/s 756 mmHg 90%
    09:00 +28°C° 1.6 mm 0 m/s 756 mmHg 86%
    10:00 +29°C° 1.6 mm 0 m/s 756 mmHg 82%
    11:00 +29°C° 1.7 mm 0 m/s 755 mmHg 82%
    12:00 +29°C° 1.7 mm 0 m/s 755 mmHg 82%
    13:00 +31°C° 1.7 mm 1 m/s 754 mmHg 81%
    14:00 +29°C° 0.2 mm 0 m/s 753 mmHg 83%
    15:00 +28°C° 0.2 mm 0 m/s 753 mmHg 84%
    16:00 +28°C° 0.2 mm 0 m/s 753 mmHg 85%
    17:00 +27°C° 0 mm 0 m/s 753 mmHg 86%
    18:00 +26°C° 0 mm 0 m/s 753 mmHg 87%
    19:00 +26°C° 0 mm 0 m/s 754 mmHg 89%
    20:00 +25°C° 0 mm 0 m/s 754 mmHg 90%
    21:00 +25°C° 0 mm 0 m/s 755 mmHg 91%
    22:00 +25°C° 0 mm 0 m/s 755 mmHg 92%
    23:00 +25°C° 0.4 mm 0 m/s 755 mmHg 93%
    Arată mai mult